Date String (YYYY-MM-DD hh:mm:ss) UTC,Instrument flags,Ambient pressure (hPa),Sample flow (lpm),Bypass flow (lpm),Sample temperature (°C),Ambient temperature (°C),ASC tube jacket temperature (°C),LED temperature (°C),Box temperature (°C),Sample RH (%),Span deviation,Mass concentration (μg/m³),Mass concentration (μg/m³),Mass concentration (μg/m³)
DateTimeUTC,F1_M11,P_M11,Q1_M11,Q2_M11,T1_M11,T2_M11,T3_M11,T4_M11,T5_M11,U1_M11,ZSPAN_M11,X0_M11,X2_M11,X1_M11
2022-11-20 01:00:00,,0829.7,5.00,0.00,25.4,23.6,00.0,34.4,27.1,09.2,0000.0,0011.81,0005.81,0005.11
2022-11-20 01:01:00,,0829.6,5.00,0.00,25.3,23.6,00.0,34.4,27.0,09.2,0000.0,0011.32,0005.78,0005.10
2022-11-20 01:02:00,,0829.6,5.00,0.00,25.3,23.5,00.0,34.4,27.1,09.1,0000.0,0011.61,0005.76,0005.09
2022-11-20 01:03:00,,0829.6,5.00,0.00,25.3,23.5,00.0,34.4,27.1,09.1,0000.0,0011.97,0005.77,0005.07
2022-11-20 01:04:00,,0829.7,5.01,0.00,25.3,23.5,00.0,34.4,27.0,09.1,0000.0,0012.25,0005.80,0005.07
2022-11-20 01:05:00,,0829.7,5.00,0.00,25.2,23.5,00.0,34.3,26.9,09.2,0000.0,0011.67,0005.81,0005.08
2022-11-20 01:06:00,,0829.7,5.01,0.00,25.2,23.5,00.0,34.3,27.0,09.2,0000.0,0012.84,0005.79,0005.07
2022-11-20 01:07:00,,0829.7,5.00,0.00,25.2,23.5,00.0,34.3,27.0,09.1,0000.0,0013.75,0005.80,0005.08
2022-11-20 01:08:00,,0829.7,5.01,0.00,25.2,23.5,00.0,34.3,27.0,09.1,0000.0,0014.19,0005.87,0005.11
2022-11-20 01:09:00,,0829.7,4.99,0.00,25.2,23.5,00.0,34.3,27.0,09.1,0000.0,0014.39,0005.91,0005.13
2022-11-20 01:10:00,,0829.6,5.00,0.00,25.2,23.5,00.0,34.3,27.0,09.1,0000.0,0014.50,0005.92,0005.17
2022-11-20 01:11:00,,0829.7,5.00,0.00,25.2,23.5,00.0,34.2,27.0,09.1,0000.0,0014.63,0005.91,0005.18
2022-11-20 01:12:00,,0829.6,4.99,0.00,25.1,23.5,00.0,34.2,26.9,09.1,0000.0,0014.25,0005.92,0005.18
2022-11-20 01:13:00,,0829.7,5.02,0.00,25.1,23.4,00.0,34.2,26.9,09.0,0000.0,0013.82,0005.93,0005.18
2022-11-20 01:14:00,,0829.7,4.99,0.00,25.1,23.4,00.0,34.2,26.9,09.0,0000.0,0013.45,0005.89,0005.19
2022-11-20 01:15:00,,0829.8,4.99,0.00,25.1,23.3,00.0,34.2,26.9,09.0,0000.0,0013.30,0005.85,0005.20
2022-11-20 01:16:00,,0829.8,5.02,0.00,25.1,23.3,00.0,34.1,26.8,08.9,0000.0,0013.47,0005.87,0005.22
2022-11-20 01:17:00,,0829.8,4.98,0.00,25.0,23.3,00.0,34.1,26.7,08.9,0000.0,0013.49,0005.95,0005.25
2022-11-20 01:18:00,,0829.8,5.00,0.00,25.0,23.3,00.0,34.1,26.7,08.9,0000.0,0013.33,0006.00,0005.28
2022-11-20 01:19:00,,0829.8,5.01,0.00,25.0,23.3,00.0,34.1,26.7,08.8,0000.0,0013.03,0006.01,0005.30
2022-11-20 01:20:00,,0829.8,5.00,0.00,25.0,23.3,00.0,34.1,26.7,08.8,0000.0,0013.36,0006.06,0005.32
2022-11-20 01:21:00,,0829.8,4.99,0.00,25.0,23.3,00.0,34.0,26.7,08.8,0000.0,0013.54,0006.10,0005.34
2022-11-20 01:22:00,,0829.8,4.99,0.00,25.0,23.3,00.0,34.0,26.7,08.8,0000.0,0013.42,0006.16,0005.35
2022-11-20 01:23:00,,0829.8,5.01,0.00,25.0,23.3,00.0,34.0,26.7,08.8,0000.0,0013.44,0006.19,0005.37
2022-11-20 01:24:00,,0829.8,5.01,0.00,24.9,23.3,00.0,34.0,26.6,08.8,0000.0,0013.93,0006.22,0005.39
2022-11-20 01:25:00,,0829.8,5.00,0.00,24.9,23.3,00.0,34.0,26.7,08.8,0000.0,0014.65,0006.25,0005.40
2022-11-20 01:26:00,,0829.9,4.99,0.00,24.9,23.3,00.0,34.0,26.7,08.9,0000.0,0015.86,0006.29,0005.40
2022-11-20 01:27:00,,0829.9,4.99,0.00,24.9,23.2,00.0,34.0,26.7,08.9,0000.0,0015.79,0006.28,0005.40
2022-11-20 01:28:00,,0829.9,5.02,0.00,24.9,23.2,00.0,33.9,26.6,08.9,0000.0,0014.66,0006.23,0005.38
2022-11-20 01:29:00,,0829.9,4.99,0.00,24.9,23.2,00.0,33.9,26.6,08.9,0000.0,0013.85,0006.18,0005.35
2022-11-20 01:30:00,,0829.9,4.99,0.00,24.9,23.2,00.0,33.9,26.6,08.9,0000.0,0014.01,0006.15,0005.30
2022-11-20 01:31:00,,0829.9,5.00,0.00,24.8,23.2,00.0,33.9,26.6,09.0,0000.0,0013.90,0006.12,0005.26
2022-11-20 01:32:00,,0829.9,5.00,0.00,24.8,23.1,00.0,33.9,26.5,09.0,0000.0,0013.70,0006.06,0005.23
2022-11-20 01:33:00,,0829.9,5.00,0.00,24.8,23.1,00.0,33.9,26.5,09.0,0000.0,0014.24,0006.00,0005.19
2022-11-20 01:34:00,,0829.8,5.00,0.00,24.8,23.1,00.0,33.9,26.5,09.0,0000.0,0014.25,0005.95,0005.15
2022-11-20 01:35:00,,0829.9,5.00,0.00,24.8,23.1,00.0,33.8,26.5,09.0,0000.0,0013.78,0005.89,0005.11
2022-11-20 01:36:00,,0829.9,5.00,0.00,24.8,23.0,00.0,33.8,26.5,09.0,0000.0,0013.18,0005.87,0005.07
2022-11-20 01:37:00,,0829.9,5.00,0.00,24.7,23.0,00.0,33.8,26.5,09.0,0000.0,0011.86,0005.84,0005.06
2022-11-20 01:38:00,,0829.9,5.00,0.00,24.7,23.1,00.0,33.8,26.6,09.0,0000.0,0011.77,0005.84,0005.04
2022-11-20 01:39:00,,0830.0,5.00,0.00,24.7,23.0,00.0,33.8,26.5,09.0,0000.0,0012.01,0005.86,0005.04
2022-11-20 01:40:00,,0830.1,5.00,0.00,24.7,23.0,00.0,33.8,26.5,09.0,0000.0,0012.02,0005.87,0005.04
2022-11-20 01:41:00,,0830.1,5.00,0.00,24.7,23.0,00.0,33.8,26.5,09.0,0000.0,0011.86,0005.85,0005.04
2022-11-20 01:42:00,,0830.1,4.99,0.00,24.7,23.0,00.0,33.7,26.4,09.0,0000.0,0011.50,0005.81,0005.04
2022-11-20 01:43:00,,0830.1,4.99,0.00,24.6,22.9,00.0,33.7,26.3,09.1,0000.0,0011.36,0005.80,0005.04
2022-11-20 01:44:00,,0830.1,5.00,0.00,24.6,23.0,00.0,33.7,26.4,09.1,0000.0,0010.69,0005.77,0005.03
2022-11-20 01:45:00,,0830.1,5.01,0.00,24.6,23.0,00.0,33.7,26.5,09.1,0000.0,0010.61,0005.75,0005.03
2022-11-20 01:46:00,,0830.1,4.99,0.00,24.6,23.0,00.0,33.7,26.5,09.1,0000.0,0010.52,0005.75,0005.05
2022-11-20 01:47:00,,0830.1,5.00,0.00,24.6,23.0,00.0,33.7,26.5,09.1,0000.0,0010.49,0005.77,0005.08
2022-11-20 01:48:00,,0830.1,5.01,0.00,24.6,23.0,00.0,33.6,26.5,09.1,0000.0,0010.53,0005.77,0005.09
2022-11-20 01:49:00,,0830.1,4.98,0.00,24.6,23.0,00.0,33.6,26.5,09.1,0000.0,0010.50,0005.75,0005.10
2022-11-20 01:50:00,,0830.1,5.02,0.00,24.6,23.0,00.0,33.6,26.5,09.1,0000.0,0010.32,0005.72,0005.10
2022-11-20 01:51:00,,0830.1,4.99,0.00,24.6,23.0,00.0,33.6,26.5,09.1,0000.0,0010.92,0005.72,0005.09
2022-11-20 01:52:00,,0830.1,4.99,0.00,24.6,22.9,00.0,33.6,26.5,09.2,0000.0,0010.99,0005.71,0005.07
2022-11-20 01:53:00,,0830.1,5.02,0.00,24.6,22.9,00.0,33.6,26.5,09.2,0000.0,0010.95,0005.70,0005.06
2022-11-20 01:54:00,,0830.1,5.00,0.00,24.5,22.9,00.0,33.6,26.5,09.2,0000.0,0010.95,0005.67,0005.04
2022-11-20 01:55:00,,0830.1,4.98,0.00,24.5,22.8,00.0,33.6,26.4,09.1,0000.0,0010.85,0005.68,0005.05
2022-11-20 01:56:00,,0830.1,5.01,0.00,24.5,22.7,00.0,33.5,26.3,09.1,0002.1,0010.81,0005.71,0005.06
2022-11-20 01:57:00,,0830.1,4.98,0.00,24.5,22.7,00.0,33.5,26.3,09.2,0003.0,0010.84,0005.73,0005.06
2022-11-20 01:58:00,,0830.1,5.01,0.00,24.4,22.7,00.0,33.5,26.3,09.1,0000.0,0010.58,0005.66,0005.04
2022-11-20 01:59:00,,0830.1,4.99,0.00,24.4,22.7,00.0,33.5,26.2,09.1,0000.0,0010.54,0005.63,0005.03
